BAW64 HKJK-EGLL

Flight info

Callsign BAW64
Flight time N/A
Altitude 35000
Route ETORU1A KAMAS UN554 RUDOL UM308 OKNET/N0495F370 UM308 KONET UG650 ULONI G650 RASKA/N0493F380 T513 EGMEG/N0493F370 G660 JDW/N0492F380 L677 CVO L617 TANSA UL613 KOR/N0491F400 UL613 YNN UL611 TUMBO DCT OVVER DCT RODON DCT VAKSU DCT SPL DCT ROTAR DCT SUXAN DCT RONAG DCT ELMUR DCT RIPUS DCT DITON DCT HOC DCT LUL DCT RLP DCT ROTSI DCT KOTUN DCT NINAL DCT ABNUR DCT DIMAL DCT ALESO ALESO1H
Aircraft A35K/H-SBDE1E2E3GHIJ1J3J4J5J6M1M2P2RWXYZ/LB1D1

Departure

Time 2026-05-03 20:24
Airport Jomo Kenyatta International Airport (HKJK)

Arrival

Time N/A
Airport London Heathrow Airport (EGLL)
Time Latitude Longitude Altitude Speed Heading
2026-05-03 20:15 -1.33281 36.92280 5330 ft 0 kts 357°
2026-05-03 20:16 -1.33280 36.92280 5330 ft 1 kts 357°
2026-05-03 20:16 -1.33271 36.92279 5330 ft 3 kts 356°
2026-05-03 20:16 -1.33232 36.92271 5333 ft 7 kts 341°
2026-05-03 20:17 -1.33172 36.92243 5334 ft 11 kts 336°
2026-05-03 20:17 -1.33095 36.92221 5333 ft 12 kts 353°
2026-05-03 20:17 -1.33013 36.92221 5334 ft 12 kts
2026-05-03 20:17 -1.32930 36.92242 5333 ft 12 kts 23°
2026-05-03 20:18 -1.32870 36.92257 5335 ft 7 kts 341°
2026-05-03 20:18 -1.32828 36.92229 5336 ft 8 kts 325°
2026-05-03 20:18 -1.32787 36.92195 5337 ft 6 kts 301°
2026-05-03 20:18 -1.32789 36.92166 5337 ft 3 kts 253°
2026-05-03 20:19 -1.32801 36.92140 5338 ft 7 kts 243°
2026-05-03 20:19 -1.32833 36.92093 5339 ft 8 kts 234°
2026-05-03 20:19 -1.32869 36.92045 5339 ft 9 kts 232°
2026-05-03 20:19 -1.32905 36.91995 5340 ft 9 kts 233°
2026-05-03 20:20 -1.32939 36.91948 5335 ft 8 kts 234°
2026-05-03 20:20 -1.32971 36.91904 5342 ft 8 kts 234°
2026-05-03 20:20 -1.33001 36.91862 5337 ft 7 kts 243°
2026-05-03 20:20 -1.33000 36.91834 5339 ft 3 kts 284°
2026-05-03 20:21 -1.32983 36.91812 5341 ft 6 kts 318°
2026-05-03 20:21 -1.32935 36.91776 5347 ft 12 kts 323°
2026-05-03 20:21 -1.32853 36.91716 5342 ft 17 kts 324°
2026-05-03 20:21 -1.32784 36.91668 5346 ft 8 kts 325°
2026-05-03 20:22 -1.32741 36.91670 5346 ft 7 kts 36°
2026-05-03 20:22 -1.32705 36.91711 5344 ft 5 kts 54°
2026-05-03 20:22 -1.32704 36.91712 5339 ft 0 kts 54°
2026-05-03 20:23 -1.32702 36.91715 5339 ft 2 kts 54°
2026-05-03 20:23 -1.32638 36.91804 5342 ft 44 kts 54°
2026-05-03 20:23 -1.32327 36.92228 5317 ft 108 kts 54°
2026-05-03 20:23 -1.31769 36.92993 5308 ft 162 kts 53°
2026-05-03 20:24 -1.31022 36.93998 5635 ft 181 kts 53°
2026-05-03 20:24 -1.30305 36.94959 6507 ft 171 kts 55°
2026-05-03 20:24 -1.29601 36.95917 6955 ft 179 kts 57°
2026-05-03 20:24 -1.28855 36.96990 7199 ft 197 kts 59°
2026-05-03 20:25 -1.28070 36.98188 7490 ft 216 kts 59°
2026-05-03 20:25 -1.27227 36.99494 7879 ft 231 kts 61°
2026-05-03 20:25 -1.26310 37.00877 8275 ft 246 kts 57°
2026-05-03 20:25 -1.25276 37.02307 8629 ft 264 kts 54°
2026-05-03 20:26 -1.24110 37.03802 8979 ft 279 kts 55°
2026-05-03 20:26 -1.22918 37.05372 9554 ft 287 kts 55°
2026-05-03 20:26 -1.21527 37.06831 10037 ft 295 kts 36°
2026-05-03 20:26 -1.19594 37.07540 10469 ft 306 kts
2026-05-03 20:27 -1.17414 37.07305 10704 ft 329 kts 342°
2026-05-03 20:27 -1.15265 37.06389 10983 ft 345 kts 337°
2026-05-03 20:27 -1.13011 37.05395 11280 ft 361 kts 339°
2026-05-03 20:27 -1.10635 37.04441 11535 ft 375 kts 341°
2026-05-03 20:28 -1.08156 37.03509 11850 ft 386 kts 341°
2026-05-03 20:28 -1.05612 37.02589 12290 ft 392 kts 342°
2026-05-03 20:28 -1.03080 37.01692 12570 ft 388 kts 342°
2026-05-03 20:28 -1.00501 37.00790 12921 ft 396 kts 342°
2026-05-03 20:29 -0.97881 36.99881 13400 ft 400 kts 342°
2026-05-03 20:29 -0.95234 36.98964 13893 ft 404 kts 343°
2026-05-03 20:29 -0.92563 36.98041 14323 ft 409 kts 343°
2026-05-03 20:29 -0.89898 36.97122 14733 ft 412 kts 343°
2026-05-03 20:30 -0.87173 36.96182 15182 ft 415 kts 343°
2026-05-03 20:30 -0.84432 36.95237 15620 ft 418 kts 342°
2026-05-03 20:30 -0.81672 36.94285 16076 ft 421 kts 342°
2026-05-03 20:30 -0.78897 36.93328 16504 ft 424 kts 342°
2026-05-03 20:31 -0.76100 36.92364 16942 ft 427 kts 342°
2026-05-03 20:31 -0.73286 36.91395 17359 ft 429 kts 342°
2026-05-03 20:31 -0.70454 36.90418 17780 ft 432 kts 342°
2026-05-03 20:31 -0.67597 36.89432 18183 ft 435 kts 342°
2026-05-03 20:32 -0.64728 36.88443 18582 ft 438 kts 342°
2026-05-03 20:32 -0.61841 36.87449 18934 ft 440 kts 342°
2026-05-03 20:32 -0.58934 36.86446 19313 ft 442 kts 342°
2026-05-03 20:32 -0.56019 36.85441 19692 ft 444 kts 342°
2026-05-03 20:33 -0.53093 36.84433 20049 ft 446 kts 342°
2026-05-03 20:33 -0.50154 36.83420 20424 ft 448 kts 342°
2026-05-03 20:33 -0.47202 36.82403 20778 ft 450 kts 342°
2026-05-03 20:33 -0.44234 36.81382 21162 ft 451 kts 343°
2026-05-03 20:34 -0.41258 36.80356 21514 ft 454 kts 343°
2026-05-03 20:34 -0.38263 36.79324 21873 ft 457 kts 343°
2026-05-03 20:34 -0.35253 36.78286 22229 ft 458 kts 343°
2026-05-03 20:34 -0.32232 36.77245 22638 ft 460 kts 343°
2026-05-03 20:35 -0.29195 36.76199 22998 ft 463 kts 343°
2026-05-03 20:35 -0.26142 36.75147 23346 ft 465 kts 343°
2026-05-03 20:35 -0.23117 36.74105 23762 ft 466 kts 343°
2026-05-03 20:35 -0.20055 36.73049 24100 ft 467 kts 343°
2026-05-03 20:36 -0.16972 36.71986 24384 ft 470 kts 343°
2026-05-03 20:36 -0.13875 36.70919 24680 ft 472 kts 343°
2026-05-03 20:36 -0.10764 36.69847 25006 ft 474 kts 343°
2026-05-03 20:36 -0.07639 36.68767 25336 ft 476 kts 343°
2026-05-03 20:37 -0.04541 36.67551 25684 ft 479 kts 339°
2026-05-03 20:37 -0.02517 36.66656 25934 ft 481 kts 338°
2026-05-03 20:37 0.00520 36.65230 26281 ft 483 kts 336°
2026-05-03 20:37 0.03549 36.63747 26658 ft 486 kts 336°
2026-05-03 20:38 0.06584 36.62233 27027 ft 489 kts 335°
2026-05-03 20:38 0.09633 36.60706 27415 ft 491 kts 335°
2026-05-03 20:38 0.12702 36.59172 27768 ft 494 kts 335°
2026-05-03 20:38 0.15788 36.57637 28141 ft 497 kts 336°
2026-05-03 20:39 0.18889 36.56100 28518 ft 499 kts 336°
2026-05-03 20:39 0.22014 36.54556 28881 ft 502 kts 336°
2026-05-03 20:39 0.25153 36.53005 29216 ft 505 kts 336°
2026-05-03 20:39 0.28309 36.51447 29542 ft 507 kts 336°
2026-05-03 20:40 0.31481 36.49882 29869 ft 510 kts 336°
2026-05-03 20:40 0.34677 36.48305 30125 ft 514 kts 336°
2026-05-03 20:40 0.37891 36.46719 30383 ft 516 kts 336°
2026-05-03 20:40 0.41114 36.45128 30627 ft 518 kts 336°
2026-05-03 20:41 0.44351 36.43529 30937 ft 519 kts 336°
2026-05-03 20:41 0.47580 36.41934 31307 ft 517 kts 336°
2026-05-03 20:41 0.50805 36.40342 31672 ft 516 kts 336°
2026-05-03 20:41 0.54024 36.38753 32039 ft 515 kts 336°
2026-05-03 20:42 0.57241 36.37166 32401 ft 515 kts 336°
2026-05-03 20:42 0.60450 36.35583 32752 ft 514 kts 337°
2026-05-03 20:42 0.63647 36.34006 33079 ft 513 kts 337°
2026-05-03 20:42 0.66849 36.32427 33362 ft 513 kts 337°
2026-05-03 20:43 0.70050 36.30848 33678 ft 513 kts 337°
2026-05-03 20:43 0.73245 36.29272 33978 ft 512 kts 337°
2026-05-03 20:43 0.76442 36.27695 34240 ft 512 kts 337°
2026-05-03 20:43 0.79633 36.26121 34506 ft 511 kts 337°
2026-05-03 20:44 0.82814 36.24550 34808 ft 509 kts 337°
2026-05-03 20:44 0.85944 36.23004 35034 ft 509 kts 337°
2026-05-03 20:44 0.89129 36.21433 35073 ft 513 kts 337°
2026-05-03 20:45 0.95541 36.18268 35071 ft 514 kts 337°
2026-05-03 20:45 1.01952 36.15097 35062 ft 514 kts 337°
2026-05-03 20:46 1.08369 36.11923 35064 ft 514 kts 337°
2026-05-03 20:46 1.14781 36.08756 35054 ft 514 kts 337°
2026-05-03 20:47 1.21195 36.05587 35054 ft 514 kts 337°
2026-05-03 20:47 1.27604 36.02420 35047 ft 514 kts 336°
2026-05-03 20:48 1.34018 35.99248 35047 ft 515 kts 336°
2026-05-03 20:48 1.40441 35.96074 35043 ft 515 kts 336°
2026-05-03 20:49 1.46815 35.92925 35048 ft 514 kts 336°
2026-05-03 20:49 1.53283 35.89883 35046 ft 512 kts 343°
2026-05-03 20:50 1.60172 35.88468 35039 ft 504 kts
2026-05-03 20:50 1.67042 35.89435 35031 ft 498 kts 22°
2026-05-03 20:51 1.73170 35.92555 35027 ft 496 kts 36°
2026-05-03 20:51 1.78939 35.96360 35017 ft 498 kts 37°
2026-05-03 20:52 1.84686 36.00237 35018 ft 498 kts 37°
2026-05-03 20:52 1.90464 36.04084 35015 ft 500 kts 37°
2026-05-03 20:53 1.96266 36.07910 35007 ft 499 kts 37°
2026-05-03 20:53 2.02067 36.11727 35004 ft 499 kts 37°
2026-05-03 20:54 2.07865 36.15545 35005 ft 499 kts 37°
2026-05-03 20:54 2.16576 36.21279 34999 ft 499 kts 37°
2026-05-03 20:55 2.22383 36.25106 34995 ft 501 kts 36°
2026-05-03 20:55 2.28177 36.28887 34988 ft 501 kts 36°
2026-05-03 20:56 2.34017 36.32687 34978 ft 500 kts 36°
2026-05-03 20:56 2.39836 36.36505 34980 ft 500 kts 36°
2026-05-03 20:57 2.45646 36.40338 34982 ft 500 kts 36°
2026-05-03 20:57 2.51465 36.44176 34972 ft 501 kts 36°
2026-05-03 20:58 2.57291 36.48017 34971 ft 501 kts 36°
2026-05-03 20:58 2.63114 36.51858 34960 ft 502 kts 36°
2026-05-03 20:59 2.68935 36.55697 34968 ft 501 kts 36°
2026-05-03 20:59 2.74762 36.59545 34962 ft 502 kts 36°
2026-05-03 21:00 2.79609 36.62739 34967 ft 502 kts 36°
2026-05-03 21:00 2.86421 36.67230 34968 ft 501 kts 36°
2026-05-03 21:01 2.92243 36.71072 34966 ft 501 kts 36°
2026-05-03 21:01 2.98071 36.74917 34974 ft 502 kts 36°
2026-05-03 21:02 3.03858 36.78732 34974 ft 501 kts 36°
2026-05-03 21:02 3.09675 36.82574 34969 ft 502 kts 36°
2026-05-03 21:03 3.15503 36.86421 34976 ft 502 kts 36°
2026-05-03 21:03 3.21331 36.90268 34968 ft 502 kts 36°
2026-05-03 21:04 3.27163 36.94118 34971 ft 502 kts 36°
2026-05-03 21:04 3.32994 36.97968 34966 ft 502 kts 36°
2026-05-03 21:05 3.38823 37.01817 34965 ft 502 kts 36°
2026-05-03 21:05 3.44656 37.05671 34966 ft 503 kts 36°
2026-05-03 21:06 3.50498 37.09531 34963 ft 503 kts 36°
2026-05-03 21:06 3.56336 37.13387 34966 ft 502 kts 36°
2026-05-03 21:07 3.62172 37.17242 34969 ft 503 kts 36°
2026-05-03 21:07 3.68011 37.21101 34975 ft 503 kts 36°
2026-05-03 21:08 3.73813 37.24936 34978 ft 503 kts 36°
2026-05-03 21:08 3.79658 37.28800 34980 ft 503 kts 36°
2026-05-03 21:09 3.85495 37.32657 34980 ft 503 kts 36°
2026-05-03 21:09 3.91342 37.36526 34997 ft 502 kts 36°
2026-05-03 21:10 3.97197 37.40351 34984 ft 504 kts 32°
2026-05-03 21:10 4.03679 37.43068 35006 ft 507 kts 19°
2026-05-03 21:11 4.10461 37.45006 35005 ft 507 kts 17°
2026-05-03 21:11 4.17280 37.46815 35016 ft 507 kts 17°
2026-05-03 21:12 4.24046 37.48614 35019 ft 505 kts 17°
2026-05-03 21:12 4.30827 37.50439 35024 ft 505 kts 17°
2026-05-03 21:13 4.37607 37.52275 35031 ft 505 kts 17°
2026-05-03 21:13 4.44391 37.54112 35037 ft 505 kts 17°
2026-05-03 21:14 4.51181 37.55953 35043 ft 505 kts 17°
2026-05-03 21:14 4.57968 37.57792 35043 ft 506 kts 17°
2026-05-03 21:15 4.64772 37.59640 35049 ft 507 kts 17°
2026-05-03 21:15 4.71583 37.61487 35051 ft 507 kts 17°
2026-05-03 21:16 4.78390 37.63333 35053 ft 507 kts 17°
2026-05-03 21:16 4.85192 37.65175 35057 ft 507 kts 17°
2026-05-03 21:17 4.90850 37.66710 35056 ft 506 kts 17°
2026-05-03 21:17 4.98757 37.68855 35058 ft 507 kts 17°
2026-05-03 21:18 5.05558 37.70698 35059 ft 506 kts 17°
2026-05-03 21:18 5.12363 37.72544 35070 ft 506 kts 17°
2026-05-03 21:19 5.19151 37.74385 35075 ft 505 kts 17°
2026-05-03 21:19 5.25935 37.76228 35076 ft 505 kts 17°
2026-05-03 21:20 5.32717 37.78070 35077 ft 505 kts 17°
2026-05-03 21:20 5.39495 37.79911 35078 ft 505 kts 17°
2026-05-03 21:21 5.46277 37.81752 35092 ft 505 kts 17°
2026-05-03 21:21 5.53048 37.83591 35091 ft 504 kts 17°
2026-05-03 21:22 5.59825 37.85433 35089 ft 504 kts 17°
2026-05-03 21:22 5.66605 37.87275 35089 ft 505 kts 17°
2026-05-03 21:23 5.73377 37.89118 35087 ft 505 kts 17°
2026-05-03 21:23 5.80111 37.90947 35091 ft 505 kts 17°
2026-05-03 21:24 5.86932 37.92805 35090 ft 505 kts 17°
2026-05-03 21:24 5.93710 37.94650 35091 ft 504 kts 17°
2026-05-03 21:25 6.00446 37.96482 35090 ft 505 kts 17°
2026-05-03 21:25 6.07224 37.98325 35089 ft 505 kts 17°
2026-05-03 21:26 6.13996 38.00169 35097 ft 505 kts 17°
2026-05-03 21:26 6.20777 38.02017 35096 ft 505 kts 17°
2026-05-03 21:27 6.27560 38.03867 35087 ft 504 kts 17°
2026-05-03 21:27 6.34338 38.05714 35085 ft 504 kts 17°
2026-05-03 21:28 6.41107 38.07559 35075 ft 504 kts 17°
2026-05-03 21:28 6.46733 38.09092 35072 ft 504 kts 17°
2026-05-03 21:29 6.53500 38.10937 35272 ft 502 kts 17°
2026-05-03 21:29 6.57945 38.12149 35778 ft 497 kts 17°
2026-05-03 21:29 6.61275 38.13049 36032 ft 496 kts 17°
2026-05-03 21:30 6.63532 38.13658 36172 ft 497 kts 17°
2026-05-03 21:30 6.66868 38.14556 36400 ft 496 kts 17°
2026-05-03 21:30 6.70197 38.15453 36617 ft 495 kts 17°
2026-05-03 21:30 6.73524 38.16351 36842 ft 494 kts 17°
2026-05-03 21:31 6.76847 38.17250 37049 ft 494 kts 17°
2026-05-03 21:31 6.80136 38.18143 37083 ft 498 kts 17°
2026-05-03 21:31 6.86835 38.19961 37090 ft 498 kts 17°
2026-05-03 21:32 6.93528 38.21776 37095 ft 498 kts 17°
2026-05-03 21:32 7.00215 38.23584 37096 ft 498 kts 17°
2026-05-03 21:33 7.06899 38.25394 37097 ft 498 kts 17°
2026-05-03 21:33 7.13585 38.27213 37096 ft 498 kts 17°
2026-05-03 21:34 7.20275 38.29031 37095 ft 499 kts 17°
2026-05-03 21:34 7.26982 38.30860 37093 ft 499 kts 17°
2026-05-03 21:35 7.33691 38.32687 37089 ft 500 kts 17°
2026-05-03 21:35 7.40404 38.34498 37093 ft 500 kts 16°
2026-05-03 21:36 7.47122 38.36317 37091 ft 497 kts 16°
2026-05-03 21:36 7.53817 38.38085 37090 ft 496 kts 15°
2026-05-03 21:37 7.60537 38.39706 37092 ft 498 kts 15°
2026-05-03 21:37 7.67280 38.41346 37095 ft 498 kts 15°
2026-05-03 21:38 7.74016 38.43019 37105 ft 499 kts 15°
2026-05-03 21:38 7.80747 38.44701 37104 ft 498 kts 15°
2026-05-03 21:39 7.87482 38.46381 37114 ft 498 kts 15°
2026-05-03 21:39 7.94172 38.48044 37103 ft 498 kts 15°
2026-05-03 21:40 8.00907 38.49722 37109 ft 499 kts 15°
2026-05-03 21:40 8.07647 38.51402 37123 ft 499 kts 15°
2026-05-03 21:41 8.14380 38.53082 37121 ft 499 kts 15°
2026-05-03 21:41 8.21117 38.54756 37121 ft 498 kts 15°
2026-05-03 21:42 8.27856 38.56442 37126 ft 499 kts 15°
2026-05-03 21:42 8.34608 38.58130 37132 ft 501 kts 15°
2026-05-03 21:43 8.41391 38.59831 37131 ft 502 kts 15°
2026-05-03 21:43 8.48172 38.61526 37133 ft 502 kts 15°
2026-05-03 21:44 8.54902 38.63205 37128 ft 501 kts 15°
2026-05-03 21:44 8.61671 38.64899 37127 ft 502 kts 15°
2026-05-03 21:45 8.68455 38.66600 37133 ft 502 kts 15°
2026-05-03 21:45 8.75232 38.68297 37132 ft 502 kts 15°
2026-05-03 21:46 8.82006 38.69992 37128 ft 501 kts 15°
2026-05-03 21:46 8.88783 38.71692 37135 ft 502 kts 15°
2026-05-03 21:47 8.95561 38.73392 37139 ft 502 kts 15°
2026-05-03 21:47 9.02342 38.75091 37148 ft 502 kts 15°
2026-05-03 21:48 9.09132 38.76733 37144 ft 502 kts 11°
2026-05-03 21:48 9.16103 38.77329 37156 ft 502 kts
2026-05-03 21:49 9.23100 38.77553 37165 ft 503 kts
2026-05-03 21:49 9.30114 38.77715 37159 ft 504 kts
2026-05-03 21:50 9.37119 38.77887 37169 ft 504 kts
2026-05-03 21:50 9.44132 38.78074 37169 ft 504 kts
2026-05-03 21:51 9.51139 38.78267 37161 ft 505 kts
2026-05-03 21:51 9.58117 38.78458 37147 ft 505 kts
2026-05-03 21:52 9.65188 38.78649 37147 ft 505 kts
2026-05-03 21:52 9.72201 38.78839 37131 ft 505 kts
2026-05-03 21:53 9.79181 38.79030 37110 ft 505 kts
2026-05-03 21:53 9.86214 38.79222 37114 ft 506 kts
2026-05-03 21:54 9.93249 38.79414 37103 ft 506 kts
2026-05-03 21:54 10.00290 38.79604 37103 ft 506 kts
2026-05-03 21:55 10.07318 38.79797 37086 ft 505 kts
2026-05-03 21:55 10.14352 38.79988 37084 ft 505 kts
2026-05-03 21:56 10.21372 38.80177 37080 ft 505 kts
2026-05-03 21:56 10.28393 38.80370 37084 ft 505 kts
2026-05-03 21:57 10.35414 38.80564 37085 ft 504 kts
2026-05-03 21:57 10.42433 38.80756 37091 ft 505 kts
2026-05-03 21:58 10.49401 38.80947 37102 ft 504 kts
2026-05-03 21:58 10.56421 38.81139 37098 ft 504 kts
2026-05-03 21:59 10.63441 38.81331 37112 ft 505 kts
2026-05-03 21:59 10.70460 38.81521 37113 ft 505 kts
2026-05-03 22:00 10.77486 38.81716 37123 ft 505 kts
2026-05-03 22:00 10.84511 38.81915 37120 ft 505 kts
2026-05-03 22:01 10.91541 38.82106 37116 ft 505 kts
2026-05-03 22:01 10.98577 38.82297 37111 ft 506 kts
2026-05-03 22:02 11.05613 38.82490 37106 ft 506 kts
2026-05-03 22:02 11.12602 38.82682 37104 ft 506 kts
2026-05-03 22:03 11.19639 38.82874 37101 ft 505 kts
2026-05-03 22:03 11.26670 38.83067 37101 ft 505 kts
2026-05-03 22:04 11.33697 38.83263 37102 ft 505 kts
2026-05-03 22:04 11.40724 38.83457 37112 ft 505 kts
2026-05-03 22:05 11.47753 38.83655 37110 ft 505 kts
2026-05-03 22:05 11.54780 38.83848 37123 ft 505 kts
2026-05-03 22:06 11.61799 38.84037 37124 ft 505 kts
2026-05-03 22:06 11.68823 38.84230 37124 ft 505 kts
2026-05-03 22:07 11.75847 38.84423 37134 ft 505 kts
2026-05-03 22:07 11.82827 38.84616 37136 ft 505 kts
2026-05-03 22:08 11.89850 38.84809 37144 ft 505 kts
2026-05-03 22:08 11.96886 38.85002 37146 ft 505 kts
2026-05-03 22:09 12.03909 38.85197 37147 ft 505 kts
2026-05-03 22:10 12.14451 38.85488 37139 ft 505 kts
2026-05-03 22:10 12.21433 38.85682 37133 ft 505 kts
2026-05-03 22:11 12.28457 38.85877 37136 ft 505 kts
2026-05-03 22:11 12.35484 38.86070 37128 ft 506 kts
2026-05-03 22:12 12.42520 38.86267 37111 ft 506 kts
2026-05-03 22:12 12.49558 38.86465 37112 ft 506 kts
2026-05-03 22:13 12.56599 38.86662 37106 ft 506 kts
2026-05-03 22:13 12.63639 38.86861 37104 ft 507 kts
2026-05-03 22:14 12.70705 38.87059 37087 ft 508 kts
2026-05-03 22:14 12.77777 38.87256 37075 ft 508 kts
2026-05-03 22:15 12.84850 38.87454 37071 ft 508 kts
2026-05-03 22:15 12.91875 38.87652 37063 ft 509 kts
2026-05-03 22:16 12.98958 38.87827 37056 ft 509 kts
2026-05-03 22:16 13.06042 38.87938 37058 ft 509 kts
2026-05-03 22:17 13.13129 38.88048 37053 ft 509 kts
2026-05-03 22:17 13.20225 38.88170 37047 ft 509 kts
2026-05-03 22:18 13.27311 38.88297 37048 ft 509 kts
2026-05-03 22:18 13.34402 38.88425 37049 ft 509 kts
2026-05-03 22:19 13.41490 38.88555 37048 ft 510 kts
2026-05-03 22:19 13.48583 38.88682 37055 ft 510 kts
2026-05-03 22:20 13.55688 38.88809 37054 ft 511 kts
2026-05-03 22:20 13.61592 38.88915 37056 ft 511 kts
2026-05-03 22:21 13.69851 38.89064 37066 ft 511 kts
2026-05-03 22:21 13.76953 38.89189 37073 ft 511 kts
2026-05-03 22:22 13.82910 38.89298 37071 ft 511 kts
2026-05-03 22:22 13.90021 38.89428 37072 ft 511 kts
2026-05-03 22:23 13.97091 38.89557 37074 ft 511 kts
2026-05-03 22:23 14.04208 38.89683 37079 ft 512 kts
2026-05-03 22:24 14.11332 38.89783 37080 ft 512 kts
2026-05-03 22:24 14.18447 38.89848 37082 ft 512 kts
2026-05-03 22:25 14.25566 38.89916 37079 ft 512 kts
2026-05-03 22:25 14.32685 38.89991 37077 ft 511 kts
2026-05-03 22:26 14.39803 38.90071 37079 ft 511 kts
2026-05-03 22:26 14.46920 38.90149 37076 ft 511 kts
2026-05-03 22:27 14.54034 38.90218 37077 ft 512 kts
2026-05-03 22:27 14.61153 38.90220 37076 ft 511 kts
2026-05-03 22:28 14.68284 38.90209 37071 ft 512 kts
2026-05-03 22:28 14.75403 38.90208 37073 ft 511 kts
2026-05-03 22:29 14.82475 38.90214 37075 ft 512 kts
2026-05-03 22:29 14.89592 38.90222 37075 ft 512 kts
2026-05-03 22:30 14.96765 38.90228 37078 ft 512 kts
2026-05-03 22:30 15.03840 38.90237 37072 ft 512 kts
2026-05-03 22:31 15.10967 38.90246 37069 ft 512 kts
2026-05-03 22:31 15.18081 38.90254 37068 ft 511 kts
2026-05-03 22:32 15.25202 38.90260 37052 ft 511 kts
2026-05-03 22:32 15.32323 38.90308 37033 ft 511 kts
2026-05-03 22:33 15.39444 38.90579 37028 ft 512 kts
2026-05-03 22:33 15.46563 38.90890 37017 ft 513 kts
2026-05-03 22:34 15.53696 38.91169 37014 ft 513 kts
2026-05-03 22:34 15.60835 38.91427 36992 ft 513 kts
2026-05-03 22:35 15.67973 38.91682 36976 ft 513 kts
2026-05-03 22:35 15.75128 38.91936 36980 ft 515 kts
2026-05-03 22:36 15.82286 38.92194 36959 ft 515 kts
2026-05-03 22:36 15.89400 38.92453 36949 ft 515 kts
2026-05-03 22:37 15.96565 38.92711 36949 ft 515 kts
2026-05-03 22:37 16.03732 38.92969 36937 ft 516 kts
2026-05-03 22:38 16.10913 38.93227 36926 ft 516 kts
2026-05-03 22:38 16.18080 38.93486 36924 ft 515 kts
2026-05-03 22:39 16.25247 38.93747 36917 ft 515 kts
2026-05-03 22:39 16.32414 38.94004 36895 ft 516 kts
2026-05-03 22:40 16.39586 38.94263 36895 ft 515 kts
2026-05-03 22:40 16.46754 38.94523 36889 ft 515 kts
2026-05-03 22:41 16.53920 38.94783 36886 ft 515 kts
2026-05-03 22:41 16.61042 38.95042 36884 ft 515 kts
2026-05-03 22:42 16.68207 38.95302 36878 ft 515 kts
2026-05-03 22:42 16.75370 38.95562 36874 ft 515 kts
2026-05-03 22:43 16.82536 38.95823 36875 ft 515 kts
2026-05-03 22:43 16.89707 38.96084 36872 ft 515 kts
2026-05-03 22:44 16.96879 38.96345 36865 ft 515 kts
2026-05-03 22:44 17.04030 38.96606 36865 ft 515 kts
2026-05-03 22:45 17.11004 38.96860 36861 ft 515 kts
2026-05-03 22:45 17.17868 38.97111 36861 ft 515 kts
2026-05-03 22:46 17.24641 38.97360 36863 ft 515 kts
2026-05-03 22:46 17.30930 38.97590 36861 ft 515 kts
2026-05-03 22:47 17.37145 38.97817 36856 ft 514 kts
2026-05-03 22:47 17.43069 38.98027 36854 ft 515 kts
2026-05-03 22:48 17.49045 38.98242 36852 ft 515 kts
2026-05-03 22:48 17.54862 38.98456 36853 ft 515 kts
2026-05-03 22:49 17.60996 38.98684 36859 ft 515 kts
2026-05-03 22:49 17.66746 38.98894 36851 ft 516 kts
2026-05-03 22:50 17.72792 38.99077 36844 ft 518 kts
2026-05-03 22:50 17.79135 38.99308 36850 ft 515 kts
2026-05-03 22:51 17.85215 38.99543 36860 ft 514 kts
2026-05-03 22:51 17.91167 38.99765 36857 ft 514 kts
2026-05-03 22:52 17.97311 38.99895 36861 ft 513 kts 360°
2026-05-03 22:52 18.03276 39.00124 36854 ft 515 kts
2026-05-03 22:53 18.09620 39.00405 36857 ft 516 kts
2026-05-03 22:53 18.15955 39.00659 36848 ft 515 kts
2026-05-03 22:54 18.22830 39.00965 36853 ft 515 kts
2026-05-03 22:54 18.29785 39.01369 36851 ft 515 kts
2026-05-03 22:55 18.36946 39.01790 36860 ft 516 kts
2026-05-03 22:55 18.43916 39.02183 36850 ft 516 kts
2026-05-03 22:56 18.50644 39.02555 36847 ft 517 kts
2026-05-03 22:56 18.57701 39.02940 36864 ft 516 kts
2026-05-03 22:57 18.64856 39.03336 36860 ft 517 kts
2026-05-03 22:57 18.71993 39.03733 36856 ft 517 kts
2026-05-03 22:58 18.79047 39.04126 36855 ft 518 kts
2026-05-03 22:58 18.85794 39.04502 36858 ft 517 kts
2026-05-03 22:59 18.92983 39.04902 36859 ft 518 kts
2026-05-03 22:59 19.00184 39.05301 36857 ft 518 kts
2026-05-03 23:00 19.07293 39.05697 36857 ft 518 kts
2026-05-03 23:00 19.14133 39.05420 37127 ft 508 kts 345°
2026-05-03 23:00 19.17560 39.04608 37484 ft 503 kts 343°
2026-05-03 23:01 19.20584 39.03795 37740 ft 501 kts 342°
2026-05-03 23:01 19.23614 39.02933 37868 ft 502 kts 341°
2026-05-03 23:01 19.26260 39.02157 37873 ft 504 kts 340°
2026-05-03 23:02 19.32419 39.00359 37859 ft 506 kts 341°
2026-05-03 23:02 19.37822 38.98805 37830 ft 506 kts 341°
2026-05-03 23:03 19.43649 38.97151 37854 ft 504 kts 341°
2026-05-03 23:03 19.50082 38.95310 37855 ft 504 kts 341°
2026-05-03 23:04 19.56454 38.93483 37857 ft 505 kts 341°
2026-05-03 23:04 19.62415 38.91777 37855 ft 505 kts 341°
2026-05-03 23:05 19.68503 38.90036 37856 ft 505 kts 341°
2026-05-03 23:05 19.74601 38.88290 37859 ft 505 kts 341°
2026-05-03 23:06 19.81025 38.86451 37859 ft 505 kts 341°
2026-05-03 23:06 19.87748 38.84523 37858 ft 505 kts 341°
2026-05-03 23:07 19.94522 38.82575 37859 ft 505 kts 341°
2026-05-03 23:07 20.01306 38.80625 37859 ft 505 kts 341°
2026-05-03 23:08 20.07230 38.78926 37859 ft 505 kts 341°
2026-05-03 23:08 20.12543 38.77424 37859 ft 505 kts 342°
2026-05-03 23:09 20.17873 38.75888 37867 ft 505 kts 341°
2026-05-03 23:09 20.23191 38.74364 37865 ft 506 kts 341°
2026-05-03 23:10 20.28622 38.72783 37864 ft 505 kts 341°
2026-05-03 23:10 20.34312 38.71123 37860 ft 504 kts 341°
2026-05-03 23:11 20.40648 38.69295 37861 ft 504 kts 341°
2026-05-03 23:11 20.47175 38.67401 37862 ft 504 kts 341°
2026-05-03 23:12 20.52629 38.65819 37865 ft 504 kts 341°
2026-05-03 23:12 20.59143 38.63933 37856 ft 502 kts 341°
2026-05-03 23:13 20.64904 38.62268 37847 ft 502 kts 341°
2026-05-03 23:13 20.71031 38.60495 37857 ft 501 kts 341°
2026-05-03 23:14 20.77084 38.58742 37857 ft 502 kts 342°
2026-05-03 23:14 20.83569 38.57953 37864 ft 511 kts 359°
2026-05-03 23:15 20.90076 38.59350 37854 ft 522 kts 19°
2026-05-03 23:15 20.96529 38.63015 37848 ft 529 kts 29°
2026-05-03 23:16 21.02801 38.67193 37852 ft 532 kts 31°
2026-05-03 23:16 21.09063 38.71410 37853 ft 532 kts 30°
2026-05-03 23:17 21.15357 38.75588 37849 ft 532 kts 30°
2026-05-03 23:17 21.21616 38.79709 37852 ft 532 kts 29°
2026-05-03 23:18 21.27923 38.83861 37861 ft 532 kts 29°
2026-05-03 23:18 21.34236 38.88021 37845 ft 533 kts 29°
2026-05-03 23:19 21.40559 38.92191 37847 ft 533 kts 29°
2026-05-03 23:19 21.46871 38.96366 37843 ft 533 kts 29°
2026-05-03 23:20 21.53192 39.00552 37839 ft 534 kts 29°
2026-05-03 23:20 21.59516 39.04743 37832 ft 535 kts 29°
2026-05-03 23:21 21.66056 39.08440 37827 ft 528 kts 16°
2026-05-03 23:21 21.73135 39.09858 37842 ft 512 kts 355°
2026-05-03 23:22 21.83212 39.07382 37849 ft 491 kts 333°
2026-05-03 23:22 21.89526 39.04624 37848 ft 489 kts 332°
2026-05-03 23:23 21.95806 39.01805 37845 ft 489 kts 332°
2026-05-03 23:23 22.02100 38.99014 37854 ft 489 kts 332°
2026-05-03 23:24 22.08361 38.96264 37846 ft 489 kts 332°
2026-05-03 23:24 22.14665 38.93496 37855 ft 489 kts 332°
2026-05-03 23:25 22.20969 38.90728 37852 ft 489 kts 332°
2026-05-03 23:25 22.27280 38.87951 37858 ft 490 kts 332°
2026-05-03 23:26 22.33585 38.85171 37859 ft 490 kts 332°
2026-05-03 23:26 22.39897 38.82391 37863 ft 490 kts 332°
2026-05-03 23:27 22.46211 38.79608 37863 ft 490 kts 332°
2026-05-03 23:27 22.52513 38.76825 37864 ft 489 kts 332°
2026-05-03 23:28 22.58820 38.74034 37884 ft 490 kts 332°
2026-05-03 23:28 22.65126 38.71246 37868 ft 490 kts 332°
2026-05-03 23:29 22.71431 38.68457 37874 ft 490 kts 332°
2026-05-03 23:29 22.77697 38.65676 37880 ft 490 kts 332°
2026-05-03 23:30 22.84006 38.62872 37878 ft 490 kts 332°
2026-05-03 23:30 22.90311 38.60069 37869 ft 490 kts 331°
2026-05-03 23:31 22.96623 38.57259 37895 ft 490 kts 331°
2026-05-03 23:31 23.02937 38.54447 37877 ft 491 kts 331°
2026-05-03 23:32 23.09249 38.51634 37884 ft 490 kts 331°
2026-05-03 23:32 23.15560 38.48816 37896 ft 490 kts 331°
2026-05-03 23:33 23.21868 38.45997 37886 ft 490 kts 331°
2026-05-03 23:33 23.28179 38.43175 37887 ft 490 kts 331°
2026-05-03 23:34 23.34487 38.40353 37887 ft 490 kts 331°
2026-05-03 23:34 23.40756 38.37546 37887 ft 490 kts 331°
2026-05-03 23:35 23.47066 38.34717 37908 ft 490 kts 330°
2026-05-03 23:35 23.53363 38.31890 37889 ft 490 kts 330°
2026-05-03 23:36 23.59664 38.29055 37889 ft 490 kts 330°
2026-05-03 23:36 23.65963 38.26224 37884 ft 490 kts 330°
2026-05-03 23:37 23.72266 38.23391 37887 ft 490 kts 330°
2026-05-03 23:37 23.78561 38.20546 37888 ft 489 kts 330°
2026-05-03 23:38 23.84851 38.17702 37874 ft 489 kts 330°
2026-05-03 23:38 23.91136 38.14861 37860 ft 489 kts 330°
2026-05-03 23:39 23.97427 38.12014 37849 ft 489 kts 330°
2026-05-03 23:39 24.03710 38.09169 37868 ft 489 kts 330°
2026-05-03 23:40 24.09954 38.06337 37828 ft 489 kts 329°
2026-05-03 23:40 24.16027 38.03152 37831 ft 477 kts 319°
2026-05-03 23:41 24.21558 37.99200 37828 ft 473 kts 318°
2026-05-03 23:41 24.26982 37.95129 37830 ft 472 kts 317°
2026-05-03 23:42 24.32395 37.91036 37831 ft 472 kts 317°
2026-05-03 23:42 24.37806 37.86958 37839 ft 472 kts 317°
2026-05-03 23:43 24.43217 37.82889 37854 ft 471 kts 317°
2026-05-03 23:43 24.48618 37.78819 37873 ft 471 kts 317°
2026-05-03 23:44 24.54022 37.74744 37863 ft 471 kts 317°
2026-05-03 23:44 24.59427 37.70667 37863 ft 471 kts 317°
2026-05-03 23:45 24.64840 37.66582 37878 ft 472 kts 317°
2026-05-03 23:45 24.70251 37.62490 37883 ft 472 kts 317°
2026-05-03 23:46 24.75663 37.58393 37893 ft 472 kts 316°
2026-05-03 23:46 24.81069 37.54298 37892 ft 471 kts 316°
2026-05-03 23:47 24.86467 37.50204 37892 ft 471 kts 316°
2026-05-03 23:47 24.91866 37.46102 37892 ft 472 kts 316°
2026-05-03 23:48 24.97249 37.42010 37884 ft 474 kts 316°
2026-05-03 23:48 25.02682 37.37875 37890 ft 475 kts 316°
2026-05-03 23:49 25.08126 37.33726 37890 ft 476 kts 316°
2026-05-03 23:49 25.13568 37.29578 37892 ft 476 kts 316°
2026-05-03 23:50 25.18098 37.26120 37894 ft 476 kts 316°
2026-05-03 23:50 25.24464 37.21254 37897 ft 477 kts 316°
2026-05-03 23:51 25.29929 37.17080 37894 ft 478 kts 316°
2026-05-03 23:51 25.35390 37.12897 37888 ft 478 kts 316°
2026-05-03 23:52 25.40848 37.08708 37887 ft 478 kts 316°
2026-05-03 23:52 25.46310 37.04517 37886 ft 478 kts 316°
2026-05-03 23:53 25.51772 37.00312 37884 ft 478 kts 316°
2026-05-03 23:53 25.57230 36.96109 37884 ft 478 kts 316°
2026-05-03 23:54 25.62692 36.91898 37910 ft 478 kts 316°
2026-05-03 23:54 25.68121 36.87708 37898 ft 478 kts 316°
2026-05-03 23:55 25.73573 36.83495 37886 ft 478 kts 316°
2026-05-03 23:55 25.79030 36.79274 37891 ft 478 kts 316°
2026-05-03 23:56 25.84485 36.75053 37881 ft 478 kts 316°
2026-05-03 23:56 25.89944 36.70822 37880 ft 479 kts 316°
2026-05-03 23:57 25.95410 36.66581 37918 ft 479 kts 315°
2026-05-03 23:57 26.00876 36.62335 37878 ft 480 kts 315°
2026-05-03 23:58 26.06352 36.58076 37881 ft 480 kts 315°
2026-05-03 23:58 26.11830 36.53812 37883 ft 480 kts 315°
2026-05-03 23:59 26.17245 36.49486 37892 ft 474 kts 311°
2026-05-03 23:59 26.21956 36.44503 37884 ft 465 kts 306°
2026-05-04 00:00 26.26425 36.39393 37885 ft 463 kts 305°
2026-05-04 00:00 26.30882 36.34220 37885 ft 462 kts 304°
2026-05-04 00:01 26.35339 36.29052 37885 ft 462 kts 304°
2026-05-04 00:01 26.39803 36.23889 37901 ft 462 kts 304°
2026-05-04 00:02 26.44263 36.18734 37887 ft 461 kts 304°
2026-05-04 00:02 26.48714 36.13579 37882 ft 461 kts 304°
2026-05-04 00:03 26.53161 36.08422 37885 ft 461 kts 304°
2026-05-04 00:03 26.56887 36.04099 37885 ft 461 kts 304°
2026-05-04 00:04 26.61328 35.98938 37900 ft 461 kts 304°
2026-05-04 00:04 26.65741 35.93806 37936 ft 461 kts 304°
2026-05-04 00:05 26.70177 35.88642 37891 ft 460 kts 304°
2026-05-04 00:05 26.74601 35.83485 37897 ft 459 kts 304°
2026-05-04 00:06 26.79018 35.78327 37897 ft 459 kts 304°
2026-05-04 00:06 26.83441 35.73166 37907 ft 458 kts 304°
2026-05-04 00:07 26.87839 35.68018 37904 ft 456 kts 304°
2026-05-04 00:07 26.92222 35.62881 37903 ft 456 kts 304°
2026-05-04 00:08 26.96604 35.57739 37903 ft 456 kts 304°
2026-05-04 00:08 27.00985 35.52596 37902 ft 456 kts 304°
2026-05-04 00:09 27.05335 35.47485 37912 ft 454 kts 304°
2026-05-04 00:09 27.09677 35.42378 37908 ft 451 kts 303°
2026-05-04 00:10 27.13999 35.37278 37905 ft 451 kts 303°
2026-05-04 00:10 27.18325 35.32174 37911 ft 451 kts 303°
2026-05-04 00:11 27.22648 35.27068 37913 ft 451 kts 303°
2026-05-04 00:11 27.26965 35.21966 37914 ft 450 kts 303°
2026-05-04 00:12 27.31279 35.16857 37911 ft 450 kts 303°
2026-05-04 00:12 27.35586 35.11747 37911 ft 450 kts 303°
2026-05-04 00:13 27.39894 35.06634 37914 ft 450 kts 303°
2026-05-04 00:13 27.44196 35.01520 37914 ft 449 kts 303°
2026-05-04 00:14 27.48489 34.96416 37908 ft 448 kts 303°
2026-05-04 00:14 27.52774 34.91344 37906 ft 449 kts 305°
2026-05-04 00:15 27.57331 34.86479 37925 ft 453 kts 307°
2026-05-04 00:15 27.61989 34.81689 37909 ft 453 kts 307°
2026-05-04 00:16 27.66585 34.76900 37929 ft 452 kts 307°
2026-05-04 00:16 27.71176 34.72053 37929 ft 452 kts 307°
2026-05-04 00:17 27.75741 34.67209 37920 ft 450 kts 307°
2026-05-04 00:17 27.80297 34.62369 37927 ft 449 kts 307°
2026-05-04 00:18 27.84841 34.57536 37931 ft 448 kts 307°
2026-05-04 00:18 27.89380 34.52703 37937 ft 448 kts 307°
2026-05-04 00:19 27.93920 34.47863 37938 ft 448 kts 307°
2026-05-04 00:19 27.98459 34.43028 37933 ft 447 kts 306°
2026-05-04 00:20 28.02524 34.37884 37939 ft 438 kts 301°
2026-05-04 00:20 28.06401 34.32574 37939 ft 437 kts 300°
2026-05-04 00:21 28.10245 34.27229 37945 ft 437 kts 300°
2026-05-04 00:21 28.14087 34.21889 37971 ft 438 kts 300°
2026-05-04 00:22 28.17942 34.16536 37967 ft 438 kts 300°
2026-05-04 00:22 28.21786 34.11189 37974 ft 437 kts 300°
2026-05-04 00:23 28.25634 34.05832 37990 ft 438 kts 300°
2026-05-04 00:23 28.29452 34.00497 37994 ft 440 kts 300°
2026-05-04 00:24 28.33317 33.95100 38035 ft 439 kts 301°
2026-05-04 00:24 28.37191 33.89715 38000 ft 439 kts 300°
2026-05-04 00:25 28.41039 33.84350 38015 ft 438 kts 300°
2026-05-04 00:25 28.44870 33.78980 38008 ft 436 kts 300°
2026-05-04 00:26 28.48697 33.73626 37988 ft 436 kts 300°
2026-05-04 00:26 28.52519 33.68265 38014 ft 436 kts 300°
2026-05-04 00:27 28.56334 33.62906 38013 ft 433 kts 300°
2026-05-04 00:27 28.60129 33.57578 38015 ft 434 kts 300°
2026-05-04 00:28 28.63936 33.52232 38016 ft 435 kts 300°
2026-05-04 00:28 28.67743 33.46878 38013 ft 435 kts 300°
2026-05-04 00:29 28.71539 33.41514 38025 ft 435 kts 300°
2026-05-04 00:29 28.75308 33.36177 38022 ft 435 kts 300°
2026-05-04 00:30 28.79098 33.30810 38026 ft 435 kts 300°
2026-05-04 00:30 28.82892 33.25431 38024 ft 435 kts 300°
2026-05-04 00:31 28.86683 33.20055 38028 ft 435 kts 300°
2026-05-04 00:31 28.90471 33.14671 38045 ft 435 kts 300°